Temp
-18 -18 -19 -19 -19 -19 -20 -20 -21 -20 -21 -22 -23 -24 -24 -24 -23 -25 -26 -28 -29 -30 -31 -31 -31 -31 -31 -31 -32 -32 -32 -32 -31 -31 -31 -31 -30 -29
-18 -18 -19 -19 -19 -20 -21 -21 -21 -22 -21 -23 -23 -24 -24 -26 -27 -28 -29 -30 -31 -31 -31 -31 -31 -31 -32 -32 -32 -32 -33 -33 -32 -32 -32 -31 -31 -31
-17 -19 -19 -20 -20 -21 -21 -21 -22 -23 -23 -22 -23 -24 -25 -27 -28 -30 -31 -31 -31 -31 -31 -31 -32 -32 -32 -33 -33 -33 -34 -34 -33 -33 -32 -32 -32 -31
-19 -19 -20 -20 -21 -21 -21 -22 -23 -23 -23 -23 -23 -25 -27 -28 -30 -31 -31 -31 -32 -32 -32 -32 -32 -33 -33 -33 -34 -34 -34 -34 -34 -33 -33 -33 -32 -32
-19 -20 -21 -21 -21 -22 -22 -23 -23 -24 -24 -25 -25 -26 -28 -30 -31 -31 -31 -32 -32 -32 -32 -33 -33 -33 -33 -33 -34 -35 -34 -34 -33 -33 -33 -33 -32 -32
-20 -21 -21 -21 -22 -22 -23 -24 -24 -24 -25 -26 -27 -28 -30 -31 -31 -32 -32 -32 -32 -33 -33 -33 -33 -33 -34 -34 -34 -35 -35 -34 -33 -33 -33 -32 -32 -32
-21 -21 -21 -21 -22 -23 -24 -24 -25 -25 -26 -27 -29 -29 -31 -31 -31 -32 -33 -33 -33 -34 -34 -34 -34 -34 -34 -34 -35 -35 -34 -34 -33 -33 -33 -33 -33 -32
-21 -21 -21 -22 -23 -23 -23 -24 -24 -25 -26 -28 -29 -31 -31 -32 -33 -33 -33 -33 -34 -35 -35 -35 -35 -35 -35 -35 -35 -35 -34 -34 -34 -33 -33 -33 -33 -33
-21 -22 -22 -23 -23 -24 -24 -25 -25 -25 -26 -27 -29 -31 -31 -32 -33 -33 -33 -34 -34 -35 -35 -35 -35 -35 -35 -35 -35 -35 -35 -34 -34 -34 -34 -33 -33 -33
-22 -22 -22 -23 -24 -25 -25 -25 -26 -27 -29 -30 -30 -31 -32 -33 -33 -34 -33 -34 -34 -35 -35 -35 -35 -35 -35 -35 -35 -35 -35 -34 -34 -34 -34 -34 -34 -34
-22 -22 -23 -24 -24 -25 -26 -26 -27 -28 -30 -30 -31 -32 -33 -33 -35 -35 -35 -34 -35 -35 -36 -35 -35 -35 -35 -35 -35 -35 -35 -35 -35 -34 -34 -34 -34 -34
-22 -23 -23 -24 -25 -26 -26 -27 -27 -29 -30 -30 -31 -33 -34 -35 -36 -36 -36 -35 -35 -35 -36 -36 -36 -35 -35 -36 -35 -35 -35 -35 -35 -35 -35 -34 -34 -34
-23 -23 -24 -25 -26 -26 -27 -28 -29 -29 -30 -31 -33 -34 -35 -36 -36 -36 -36 -36 -35 -35 -36 -36 -36 -36 -35 -35 -35 -35 -35 -35 -35 -35 -35 -34 -34 -34
-23 -24 -25 -26 -27 -27 -27 -29 -29 -30 -30 -32 -33 -34 -36 -37 -37 -37 -36 -36 -36 -36 -36 -36 -36 -36 -36 -36 -35 -35 -35 -35 -35 -35 -35 -34 -34 -35
-25 -25 -26 -27 -27 -28 -29 -30 -30 -30 -31 -32 -33 -35 -36 -37 -37 -37 -37 -36 -36 -36 -36 -36 -36 -36 -36 -36 -35 -35 -35 -35 -35 -35 -35 -35 -35 -35
-26 -26 -27 -28 -28 -29 -30 -31 -31 -31 -32 -33 -34 -35 -36 -37 -37 -37 -37 -36 -36 -36 -36 -36 -36 -36 -36 -36 -35 -35 -35 -35 -35 -35 -35 -35 -35 -35
-26 -27 -28 -28 -30 -31 -32 -32 -32 -32 -33 -34 -34 -35 -36 -37 -37 -37 -37 -37 -36 -37 -37 -37 -36 -36 -36 -36 -36 -35 -35 -35 -35 -35 -35 -35 -36 -36
-27 -28 -29 -30 -31 -32 -32 -33 -33 -34 -34 -34 -35 -35 -36 -37 -37 -36 -37 -37 -37 -37 -37 -37 -36 -36 -36 -36 -36 -35 -35 -35 -35 -35 -35 -36 -36 -37
-28 -29 -30 -31 -32 -33 -33 -33 -33 -35 -35 -35 -35 -35 -36 -36 -37 -37 -37 -37 -37 -37 -37 -37 -37 -36 -36 -36 -36 -36 -35 -36 -36 -36 -36 -36 -37 -37
-30 -31 -32 -32 -33 -33 -33 -34 -34 -35 -36 -36 -36 -36 -37 -37 -37 -37 -37 -37 -38 -37 -37 -37 -37 -37 -36 -36 -36 -36 -36 -36 -36 -36 -36 -37 -37 -37
-31 -32 -33 -33 -33 -34 -34 -35 -35 -36 -36 -36 -36 -37 -38 -37 -37 -38 -38 -38 -38 -37 -37 -37 -37 -37 -37 -36 -36 -36 -36 -36 -36 -36 -36 -37 -37 -37
-33 -33 -33 -34 -34 -35 -35 -36 -36 -36 -36 -36 -37 -38 -38 -38 -38 -38 -38 -38 -38 -38 -37 -37 -37 -37 -37 -37 -36 -36 -36 -36 -36 -36 -37 -37 -37 -37
-33 -34 -34 -35 -35 -36 -36 -37 -37 -37 -37 -37 -38 -39 -40 -39 -39 -39 -39 -39 -38 -38 -38 -37 -37 -37 -37 -37 -37 -36 -36 -36 -36 -36 -37 -37 -37 -37
Height
5678 5672 5665 5656 5648 5641 5633 5624 5616 5611 5605 5593 5580 5566 5553 5543 5535 5525 5514 5503 5495 5488 5482 5475 5466 5458 5451 5445 5441 5439 5438 5437 5437 5437 5438 5440 5442 5446
5667 5659 5651 5643 5635 5626 5617 5609 5599 5590 5586 5575 5565 5551 5538 5523 5509 5501 5493 5486 5479 5473 5465 5456 5447 5442 5436 5432 5428 5427 5425 5423 5422 5422 5423 5424 5426 5429
5654 5646 5637 5629 5620 5611 5602 5593 5583 5571 5562 5562 5544 5532 5520 5505 5493 5485 5476 5468 5461 5454 5448 5442 5433 5427 5423 5419 5417 5414 5413 5411 5409 5408 5408 5409 5411 5414
5638 5631 5622 5614 5606 5596 5586 5577 5566 5555 5542 5534 5530 5513 5498 5486 5473 5466 5461 5453 5444 5437 5430 5425 5419 5415 5411 5408 5405 5403 5401 5399 5396 5394 5394 5395 5395 5398
5626 5616 5608 5599 5590 5579 5570 5560 5549 5537 5524 5509 5501 5491 5477 5468 5456 5446 5439 5434 5427 5421 5415 5410 5406 5404 5400 5397 5395 5393 5391 5388 5385 5382 5381 5381 5382 5384
5612 5603 5594 5584 5574 5563 5553 5542 5530 5517 5505 5490 5477 5468 5456 5451 5439 5430 5421 5414 5408 5405 5399 5396 5394 5392 5389 5387 5385 5383 5381 5377 5374 5371 5369 5369 5370 5372
5598 5589 5580 5570 5560 5549 5537 5527 5513 5499 5485 5471 5459 5447 5440 5431 5421 5413 5404 5398 5394 5388 5386 5384 5382 5381 5378 5377 5375 5374 5372 5368 5364 5360 5360 5359 5361 5363
5584 5573 5562 5552 5541 5532 5523 5512 5501 5485 5470 5455 5444 5431 5423 5412 5403 5397 5391 5385 5382 5377 5373 5373 5371 5370 5368 5366 5364 5362 5360 5358 5355 5351 5351 5351 5352 5354
5567 5557 5547 5536 5524 5511 5500 5489 5478 5465 5452 5442 5428 5418 5407 5399 5391 5385 5379 5374 5370 5367 5362 5363 5361 5360 5358 5357 5354 5353 5351 5348 5345 5343 5342 5343 5344 5346
5551 5541 5531 5520 5507 5492 5481 5471 5458 5441 5423 5414 5409 5403 5392 5385 5378 5372 5368 5363 5360 5356 5353 5353 5352 5351 5349 5348 5345 5344 5342 5339 5336 5334 5334 5335 5336 5337
5536 5525 5512 5502 5490 5477 5462 5449 5441 5428 5411 5397 5388 5380 5375 5370 5364 5359 5356 5352 5350 5347 5344 5343 5344 5342 5340 5339 5336 5335 5333 5330 5327 5326 5326 5326 5327 5328
5520 5508 5496 5484 5473 5461 5446 5432 5419 5407 5393 5379 5371 5367 5360 5356 5353 5349 5345 5342 5339 5339 5336 5335 5335 5333 5332 5330 5329 5325 5324 5322 5319 5318 5317 5317 5317 5317
5501 5491 5479 5466 5455 5444 5430 5416 5402 5389 5378 5365 5357 5351 5348 5346 5344 5342 5338 5333 5330 5329 5328 5327 5328 5326 5324 5324 5321 5318 5316 5314 5312 5311 5310 5309 5308 5307
5481 5470 5460 5449 5436 5424 5410 5397 5384 5372 5361 5352 5345 5340 5337 5336 5332 5330 5326 5324 5322 5321 5320 5320 5320 5318 5317 5315 5313 5310 5308 5306 5305 5304 5303 5301 5299 5299
5460 5449 5438 5426 5416 5404 5391 5379 5366 5357 5347 5340 5334 5330 5327 5325 5323 5319 5317 5314 5312 5312 5313 5313 5313 5311 5309 5308 5306 5303 5301 5298 5297 5296 5295 5292 5291 5291
5441 5430 5416 5404 5392 5381 5370 5361 5352 5343 5335 5329 5323 5320 5317 5315 5313 5309 5305 5303 5303 5304 5305 5306 5305 5304 5303 5300 5299 5297 5294 5292 5290 5289 5287 5285 5284 5283
5422 5409 5398 5385 5374 5363 5353 5343 5336 5330 5324 5318 5314 5311 5308 5305 5302 5299 5296 5295 5295 5296 5297 5298 5298 5298 5296 5294 5292 5290 5288 5285 5284 5282 5280 5279 5277 5276
5399 5388 5378 5366 5356 5348 5339 5330 5321 5314 5309 5306 5303 5300 5298 5295 5292 5290 5288 5287 5287 5289 5290 5291 5291 5291 5290 5288 5287 5285 5281 5280 5278 5276 5275 5274 5272 5271
5377 5367 5358 5349 5340 5331 5322 5315 5308 5302 5296 5293 5290 5289 5287 5285 5283 5281 5280 5280 5281 5282 5283 5284 5284 5284 5284 5282 5281 5278 5276 5274 5273 5271 5270 5269 5268 5266
5356 5346 5338 5330 5321 5312 5305 5297 5291 5286 5282 5279 5277 5276 5275 5274 5274 5273 5273 5273 5274 5275 5277 5278 5278 5278 5277 5277 5275 5273 5271 5270 5268 5267 5265 5264 5263 5262
5337 5327 5317 5309 5301 5293 5285 5278 5272 5269 5266 5265 5264 5264 5264 5264 5264 5264 5265 5266 5267 5269 5270 5271 5272 5271 5271 5271 5270 5268 5266 5265 5264 5262 5261 5260 5259 5258
5316 5307 5297 5288 5280 5272 5265 5260 5256 5253 5251 5250 5250 5250 5252 5254 5255 5256 5257 5258 5260 5262 5264 5265 5266 5266 5266 5266 5265 5264 5262 5261 5260 5259 5258 5257 5256 5254
5296 5287 5277 5268 5260 5252 5248 5244 5241 5238 5237 5236 5237 5239 5241 5244 5246 5248 5249 5251 5253 5256 5258 5259 5260 5260 5260 5260 5260 5259 5258 5257 5257 5256 5255 5253 5253 5252
Wind_Speed
66 75 73 73 74 73 72 72 75 76 77 77 80 83 87 90 92 90 87 80 73 66 65 65 66 60 53 49 46 45 46 47 48 51 53 56 59 63
76 78 76 76 75 73 72 76 78 79 80 79 82 86 88 88 89 84 78 70 65 64 65 66 64 55 48 45 44 43 43 43 45 47 49 52 54 57
80 77 76 75 74 74 76 78 79 80 83 83 87 88 89 85 83 76 70 68 68 68 67 63 57 50 45 43 42 41 41 42 44 46 48 49 51 53
79 79 76 75 75 76 77 78 79 82 87 88 87 89 88 83 79 75 70 70 71 69 66 58 50 45 41 41 39 39 39 41 44 45 44 44 44 45
78 76 74 75 76 77 78 80 82 85 89 92 91 89 86 77 76 76 75 71 68 63 56 50 45 41 39 39 38 37 38 39 40 40 39 40 39 38
74 73 74 75 76 77 79 81 84 88 91 93 92 87 80 75 75 72 70 66 62 53 49 44 41 38 37 37 36 35 35 36 38 38 36 35 35 35
72 72 74 75 76 78 80 81 85 89 91 90 86 83 77 75 71 66 64 61 54 49 44 40 38 35 35 35 35 34 32 33 35 35 33 33 32 32
70 72 75 77 79 81 83 85 87 90 91 86 82 77 75 72 65 61 58 54 47 42 40 36 36 34 34 34 34 32 32 32 31 31 30 30 30 31
70 73 75 77 80 83 86 88 91 93 91 84 80 74 71 64 61 56 53 47 43 38 37 33 33 32 33 32 33 31 32 32 30 29 29 29 29 30
71 75 78 79 81 85 88 90 92 91 86 83 78 69 63 58 56 53 49 41 38 35 35 31 31 31 31 30 32 31 32 30 28 28 27 27 27 28
75 79 80 82 82 85 90 92 90 82 80 80 74 65 57 52 47 46 42 39 34 32 32 31 29 30 31 29 32 31 30 29 27 27 27 27 27 28
78 80 82 83 85 87 90 90 84 79 76 74 65 55 50 42 38 38 39 36 33 30 30 30 28 30 28 29 30 33 30 27 25 25 27 27 28 29
81 83 83 84 86 88 88 83 80 75 70 63 53 50 45 36 38 37 36 35 33 29 29 29 27 28 29 27 29 30 29 26 22 24 26 28 29 28
83 83 83 85 87 88 85 79 75 70 63 52 44 42 36 40 44 42 38 33 29 28 28 29 26 27 28 28 28 28 28 25 21 22 25 27 26 25
85 84 86 87 88 85 80 76 70 64 54 43 39 37 35 37 41 42 40 33 28 27 26 27 25 26 26 26 25 26 27 25 21 22 24 24 23 25
85 86 87 88 86 82 77 72 65 59 48 41 37 34 33 35 39 42 36 30 26 25 26 25 23 24 24 25 24 24 26 22 22 23 21 20 23 23
88 88 88 86 79 76 74 69 64 56 45 40 37 34 33 35 37 36 30 27 25 24 25 24 23 23 24 24 22 23 24 20 21 22 18 18 18 17
89 88 84 78 74 73 69 64 62 53 46 42 39 35 34 35 33 30 27 25 24 24 24 23 23 23 22 23 21 21 21 19 19 19 16 14 15 16
88 84 77 75 74 71 66 64 59 49 45 44 43 38 35 32 32 28 25 24 24 25 23 23 22 22 21 20 20 21 19 17 18 17 15 13 13 16
83 78 76 76 73 69 67 64 56 47 44 43 42 42 36 34 31 27 25 23 23 24 22 21 21 21 20 19 19 19 17 15 15 16 15 15 15 16
77 77 77 75 73 72 67 57 50 44 42 41 40 37 36 32 29 26 24 23 23 22 21 20 20 20 19 18 18 18 16 14 14 15 15 14 14 14
79 78 77 76 74 68 57 49 45 41 39 38 38 36 32 30 28 26 25 24 23 23 21 20 20 19 18 18 17 16 15 13 13 13 13 12 12 11
78 77 76 74 67 56 49 45 42 38 35 34 36 32 33 31 28 27 23 22 22 21 21 20 20 19 18 17 15 14 14 13 13 12 12 11 10 9
Wind_Direction
309 314 313 312 311 310 310 310 309 309 311 314 313 314 314 314 314 312 310 308 307 304 303 304 305 303 297 291 285 280 276 272 268 264 261 260 257 254
300 309 310 310 309 310 310 310 310 311 313 314 314 314 314 312 311 310 308 306 304 303 304 307 307 302 296 290 286 282 277 274 270 267 264 260 258 256
307 307 309 309 310 310 310 311 312 313 313 314 315 314 313 311 308 308 306 305 304 305 305 306 304 298 295 289 286 282 279 276 274 271 267 264 260 256
307 307 308 309 309 310 311 312 313 313 314 315 316 314 312 311 308 306 306 304 304 304 304 303 299 294 291 289 284 281 280 280 280 278 275 271 265 260
303 306 308 308 310 310 312 312 314 315 316 316 315 314 312 310 308 306 304 304 303 302 301 298 293 291 289 285 282 281 283 283 281 277 273 270 266 261
304 306 307 308 310 311 312 314 315 316 316 315 315 314 310 309 307 305 305 305 305 302 298 294 288 288 284 283 281 283 288 288 285 280 273 267 262 258
304 306 307 309 310 311 313 315 315 315 315 314 313 311 310 308 307 306 306 306 306 301 294 290 286 286 282 281 280 281 284 288 286 279 272 265 259 254
306 307 309 311 311 312 313 314 316 315 314 313 311 309 310 308 307 306 306 305 303 296 291 287 285 285 285 285 286 288 289 292 288 278 270 263 258 252
309 311 312 311 312 313 314 316 317 316 313 312 309 309 307 305 303 303 303 302 300 294 288 286 284 285 284 284 286 287 291 294 289 276 267 262 258 255
313 314 313 314 314 314 315 317 316 314 313 310 308 307 303 300 299 299 300 297 297 290 285 283 283 285 284 286 287 290 292 295 288 275 267 264 261 258
314 315 315 314 314 315 315 315 315 313 310 308 308 305 301 299 298 297 298 295 294 286 282 281 282 285 286 286 289 291 294 297 286 272 269 269 268 267
314 314 314 314 315 314 315 314 314 313 310 308 307 303 299 297 294 298 299 295 291 284 278 277 282 286 285 289 291 293 296 299 283 270 271 274 276 275
313 313 313 313 313 314 314 314 315 313 311 307 304 301 298 293 294 294 300 295 288 283 276 276 280 283 286 287 289 291 296 298 278 269 274 278 279 274
311 312 312 312 313 314 315 316 316 313 312 307 303 300 290 290 292 297 298 292 280 277 273 275 279 282 285 288 290 292 297 298 277 270 277 281 277 273
310 312 312 313 313 315 316 317 316 314 311 307 305 299 288 286 289 295 296 289 277 272 268 271 277 282 287 289 289 292 299 296 279 280 284 281 278 278
311 311 313 313 314 315 317 317 315 313 307 305 303 299 292 290 291 294 295 284 272 266 265 269 275 282 288 291 291 294 300 289 281 288 288 281 280 279
310 312 313 313 313 315 316 316 313 311 303 301 299 296 292 290 291 292 289 277 269 264 263 268 273 281 288 291 291 296 297 284 286 294 288 289 284 276
311 312 312 312 312 313 314 313 311 306 298 296 294 291 290 289 289 289 283 272 266 262 262 269 275 280 285 289 292 296 296 286 293 295 288 290 285 282
311 311 310 310 311 312 311 310 307 298 289 290 290 287 284 285 286 284 278 266 259 258 260 267 274 280 284 288 293 297 297 287 295 293 287 291 287 287
309 309 309 310 310 310 310 308 301 292 284 284 283 283 282 280 277 276 271 263 256 255 259 265 272 278 284 287 291 296 297 286 293 290 282 285 286 286
308 308 308 309 310 310 308 303 296 289 282 280 277 272 273 272 271 269 264 257 249 254 258 263 269 276 283 285 288 294 295 284 290 290 284 283 286 287
307 307 308 309 309 309 304 298 293 287 281 277 272 270 266 263 262 261 257 252 250 251 255 260 267 273 280 281 284 291 296 279 286 293 291 283 282 282
307 307 308 309 308 305 301 296 292 286 278 272 265 259 257 259 250 249 252 251 247 249 251 257 264 270 274 276 280 286 296 276 278 287 290 285 278 274